"Period start","avg(HW err(1)/warn(2) (#))","avg(Visibility (m))","avg(Weather code (#))","avg(Precip intensity (mm/h))","min(HW err(1)/warn(2) (#))","max(HW err(1)/warn(2) (#))","std(HW err(1)/warn(2) (#))","med(HW err(1)/warn(2) (#))","min(Visibility (m))","max(Visibility (m))","std(Visibility (m))","med(Visibility (m))","min(Weather code (#))","max(Weather code (#))","std(Weather code (#))","med(Weather code (#))","min(Precip intensity (mm/h))","max(Precip intensity (mm/h))","std(Precip intensity (mm/h))","med(Precip intensity (mm/h))"
2014-11-27 00:00:00,1,,,,1,1,0,1,,,,,,,,,,,,
2014-11-27 00:10:00,1,,,,1,1,0,1,,,,,,,,,,,,
2014-11-27 00:20:00,1,,,,1,1,0,1,,,,,,,,,,,,
2014-11-27 00:30:00,1,,,,1,1,0,1,,,,,,,,,,,,
2014-11-27 00:40:00,1,,,,1,1,0,1,,,,,,,,,,,,
2014-11-27 00:50:00,1,,,,1,1,0,1,,,,,,,,,,,,
2014-11-27 01:00:00,1,,,,1,1,0,1,,,,,,,,,,,,
2014-11-27 01:10:00,1,,,,1,1,0,1,,,,,,,,,,,,
2014-11-27 01:20:00,1,,,,1,1,0,1,,,,,,,,,,,,
2014-11-27 01:30:00,1,,,,1,1,0,1,,,,,,,,,,,,
2014-11-27 01:40:00,1,,,,1,1,0,1,,,,,,,,,,,,
2014-11-27 01:50:00,1,,,,1,1,0,1,,,,,,,,,,,,
2014-11-27 02:00:00,1,,,,1,1,0,1,,,,,,,,,,,,
2014-11-27 02:10:00,1,,,,1,1,0,1,,,,,,,,,,,,
2014-11-27 02:20:00,1,,,,1,1,0,1,,,,,,,,,,,,
2014-11-27 02:30:00,1,,,,1,1,0,1,,,,,,,,,,,,
2014-11-27 02:40:00,1,,,,1,1,0,1,,,,,,,,,,,,
2014-11-27 02:50:00,1,,,,1,1,0,1,,,,,,,,,,,,
2014-11-27 03:00:00,1,,,,1,1,0,1,,,,,,,,,,,,
2014-11-27 03:10:00,1,,,,1,1,0,1,,,,,,,,,,,,
2014-11-27 03:20:00,2,33333,,0.00,1,2,0,2,0,50000,23570,50000,,,,,0.00,0.00,0.00,0.00
2014-11-27 03:30:00,1,37500,,0.00,1,2,0,1,0,50000,21651,50000,,,,,0.00,0.00,0.00,0.00
2014-11-27 03:40:00,2,50000,0,0.00,2,2,0,2,50000,50000,0,50000,0,0,0,0,0.00,0.00,0.00,0.00
2014-11-27 03:50:00,2,50000,0,0.00,2,2,0,2,50000,50000,0,50000,0,0,0,0,0.00,0.00,0.00,0.00
2014-11-27 04:00:00,2,50000,0,0.00,2,2,0,2,50000,50000,0,50000,0,0,0,0,0.00,0.00,0.00,0.00
2014-11-27 04:10:00,1,50000,0,0.00,1,2,0,1,50000,50000,0,50000,0,0,0,0,0.00,0.00,0.00,0.00
2014-11-27 04:20:00,1,,,,1,1,0,1,,,,,,,,,,,,
2014-11-27 04:30:00,1,,,,1,1,0,1,,,,,,,,,,,,
2014-11-27 04:40:00,1,37500,,0.00,1,2,0,1,0,50000,21651,50000,,,,,0.00,0.00,0.00,0.00
2014-11-27 04:50:00,1,50000,0,0.00,1,2,0,1,50000,50000,0,50000,0,0,0,0,0.00,0.00,0.00,0.00
2014-11-27 05:00:00,1,,,,1,1,0,1,,,,,,,,,,,,
2014-11-27 05:10:00,2,50000,0,0.00,1,2,0,2,50000,50000,0,50000,0,0,0,0,0.00,0.00,0.00,0.00
2014-11-27 05:20:00,1,50000,0,0.00,1,2,0,1,50000,50000,0,50000,0,0,0,0,0.00,0.00,0.00,0.00
2014-11-27 05:30:00,1,,,,1,1,0,1,,,,,,,,,,,,
2014-11-27 05:40:00,1,,,,1,1,0,1,,,,,,,,,,,,
2014-11-27 05:50:00,2,50000,0,0.00,1,2,0,2,50000,50000,0,50000,0,0,0,0,0.00,0.00,0.00,0.00
2014-11-27 06:00:00,2,50000,0,0.00,2,2,0,2,50000,50000,0,50000,0,0,0,0,0.00,0.00,0.00,0.00
2014-11-27 06:10:00,2,50000,0,0.00,2,2,0,2,50000,50000,0,50000,0,0,0,0,0.00,0.00,0.00,0.00
2014-11-27 06:20:00,2,44028,0,0.00,2,2,0,2,21518,50000,9060,48442,0,0,0,0,0.00,0.00,0.00,0.00
2014-11-27 06:30:00,2,29200,0,0.00,1,2,0,2,0,50000,16119,28862,0,0,0,0,0.00,0.00,0.00,0.00
2014-11-27 06:40:00,1,9197,,0.00,1,2,0,1,0,18463,9197,9163,,,,,0.00,0.00,0.00,0.00
2014-11-27 06:50:00,2,20733,0,0.00,1,2,0,2,0,35496,10396,17542,0,0,0,0,0.00,0.00,0.00,0.00
2014-11-27 07:00:00,2,21266,0,0.00,2,2,0,2,11147,33706,6371,20488,0,0,0,0,0.00,0.00,0.00,0.00
2014-11-27 07:10:00,2,6865,10,0.00,2,2,0,2,5253,8945,1093,6544,0,71,21,0,0.00,0.00,0.00,0.00
2014-11-27 07:20:00,2,4974,77,0.06,2,2,0,2,4194,6495,646,4894,71,78,2,78,0.00,0.10,0.03,0.05
2014-11-27 07:30:00,2,5278,77,0.06,2,2,0,2,4641,6505,635,4981,77,77,0,77,0.05,0.10,0.02,0.05
2014-11-27 07:40:00,2,5184,77,0.07,2,2,0,2,3649,6618,849,5020,77,78,0,77,0.05,0.25,0.06,0.05
2014-11-27 07:50:00,2,4574,73,0.06,2,2,0,2,3789,5778,653,4346,71,77,3,71,0.05,0.15,0.03,0.05
2014-11-27 08:00:00,2,4876,77,0.08,2,2,0,2,4169,5471,447,4890,77,77,0,77,0.05,0.10,0.02,0.10
2014-11-27 08:10:00,2,5566,73,0.11,2,2,0,2,4617,7446,750,5387,71,77,3,71,0.05,0.20,0.05,0.10
2014-11-27 08:20:00,2,4702,77,0.14,2,2,0,2,3443,6436,920,4543,77,77,0,77,0.05,0.20,0.05,0.15
2014-11-27 08:30:00,2,4008,75,0.23,2,2,0,2,3270,4918,416,3919,71,77,3,77,0.10,0.65,0.15,0.17
2014-11-27 08:40:00,2,3512,71,0.24,2,2,0,2,3044,3971,295,3520,71,71,0,71,0.10,0.45,0.11,0.17
2014-11-27 08:50:00,2,3917,71,0.24,2,2,0,2,3360,4498,300,3864,71,71,0,71,0.10,0.85,0.21,0.17
2014-11-27 09:00:00,2,4349,71,0.35,2,2,0,2,3044,5617,668,4382,71,71,0,71,0.10,1.05,0.29,0.25
2014-11-27 09:10:00,2,5612,71,0.20,2,2,0,2,3750,8210,1191,5666,71,71,0,71,0.15,0.35,0.07,0.17
2014-11-27 09:20:00,2,4560,71,0.47,2,2,0,2,3168,6985,1388,3926,71,71,0,71,0.10,1.40,0.38,0.33
2014-11-27 09:30:00,2,4557,71,0.37,2,2,0,2,3298,5309,694,4785,71,71,0,71,0.20,0.90,0.23,0.25
2014-11-27 09:40:00,2,5443,71,0.17,2,2,0,2,3881,7190,1207,5632,71,71,0,71,0.05,0.65,0.19,0.10
2014-11-27 09:50:00,2,3727,71,0.26,2,2,0,2,2679,5283,748,3568,71,71,0,71,0.10,0.45,0.11,0.28
2014-11-27 10:00:00,2,4078,71,0.15,2,2,0,2,3266,5249,569,3996,71,71,0,71,0.10,0.25,0.05,0.15
2014-11-27 10:10:00,2,4908,71,0.11,2,2,0,2,4040,6433,811,4598,71,71,0,71,0.05,0.20,0.04,0.10
2014-11-27 10:20:00,2,4874,77,0.08,2,2,0,2,3861,7188,946,4852,77,77,0,77,0.05,0.10,0.02,0.10
2014-11-27 10:30:00,2,4564,72,0.11,2,2,0,2,3507,5179,565,4764,71,77,2,71,0.05,0.30,0.10,0.05
2014-11-27 10:40:00,2,5283,75,0.06,2,2,0,2,4000,6904,922,5176,71,78,3,77,0.00,0.15,0.03,0.05
2014-11-27 10:50:00,2,3893,71,0.07,2,2,0,2,3299,4497,342,4000,71,71,0,71,0.00,0.25,0.06,0.05
2014-11-27 11:00:00,2,2354,77,0.20,2,2,0,2,1916,2965,319,2212,77,77,0,77,0.10,0.30,0.06,0.20
2014-11-27 11:10:00,2,4294,77,0.12,2,2,0,2,2026,7774,1638,4535,77,77,0,77,0.05,0.30,0.09,0.10
2014-11-27 11:20:00,2,2103,74,0.30,2,2,0,2,1858,2387,149,2134,71,77,3,74,0.20,0.40,0.07,0.30
2014-11-27 11:30:00,2,2065,72,0.27,2,2,0,2,1848,2506,224,1954,71,77,2,71,0.20,0.45,0.07,0.25
2014-11-27 11:40:00,2,2175,75,0.53,2,2,0,2,1732,2741,328,2102,71,77,3,77,0.30,0.70,0.14,0.55
2014-11-27 11:50:00,2,2591,74,0.50,1,2,0,2,2369,2804,135,2640,71,77,3,77,0.30,0.70,0.12,0.50
2014-11-27 12:00:00,1,,,,1,1,0,1,,,,,,,,,,,,
2014-11-27 12:10:00,1,,,,1,1,0,1,,,,,,,,,,,,
2014-11-27 12:20:00,1,,,,1,1,0,1,,,,,,,,,,,,
2014-11-27 12:30:00,1,,,,1,1,0,1,,,,,,,,,,,,
2014-11-27 12:40:00,1,,,,1,1,0,1,,,,,,,,,,,,
2014-11-27 12:50:00,1,,,,1,1,0,1,,,,,,,,,,,,
2014-11-27 13:00:00,1,,,,1,1,0,1,,,,,,,,,,,,
2014-11-27 13:10:00,1,,,,1,1,0,1,,,,,,,,,,,,
2014-11-27 13:20:00,1,,,,1,1,0,1,,,,,,,,,,,,
2014-11-27 13:30:00,1,,,,1,1,0,1,,,,,,,,,,,,
2014-11-27 13:40:00,1,,,,1,1,0,1,,,,,,,,,,,,
2014-11-27 13:50:00,1,,,,1,1,0,1,,,,,,,,,,,,
2014-11-27 14:00:00,1,,,,1,1,0,1,,,,,,,,,,,,
2014-11-27 14:10:00,1,,,,1,1,0,1,,,,,,,,,,,,
2014-11-27 14:20:00,1,,,,1,1,0,1,,,,,,,,,,,,
2014-11-27 14:30:00,1,,,,1,1,0,1,,,,,,,,,,,,
2014-11-27 14:40:00,1,,,,1,1,0,1,,,,,,,,,,,,
2014-11-27 14:50:00,1,,,,1,1,0,1,,,,,,,,,,,,
2014-11-27 15:00:00,1,,,,1,1,0,1,,,,,,,,,,,,
2014-11-27 15:10:00,1,,,,1,1,0,1,,,,,,,,,,,,
2014-11-27 15:20:00,2,46382,0,0.00,1,2,0,2,39736,50000,3735,47241,0,0,0,0,0.00,0.00,0.00,0.00
2014-11-27 15:30:00,2,20241,30,0.00,2,2,0,2,13052,39572,8194,17214,0,77,36,0,0.00,0.00,0.00,0.00
2014-11-27 15:40:00,2,12706,77,0.00,2,2,0,2,10497,15128,1373,12920,77,78,0,77,0.00,0.00,0.00,0.00
2014-11-27 15:50:00,2,7685,78,0.04,2,2,0,2,6537,9949,942,7601,78,78,0,78,0.00,0.05,0.02,0.05
2014-11-27 16:00:00,2,6812,78,0.04,2,2,0,2,6248,7871,504,6762,77,78,0,78,0.00,0.05,0.02,0.05
2014-11-27 16:10:00,2,6185,77,0.04,2,2,0,2,5011,7227,636,6188,77,77,0,77,0.00,0.05,0.02,0.05
2014-11-27 16:20:00,2,6220,77,0.03,2,2,0,2,5305,6924,456,6254,77,77,0,77,0.00,0.05,0.02,0.05
2014-11-27 16:30:00,2,4615,77,0.06,2,2,0,2,3927,5182,429,4653,77,77,0,77,0.00,0.10,0.03,0.05
2014-11-27 16:40:00,2,7264,78,0.04,2,2,0,2,5580,9037,994,7212,77,78,0,78,0.00,0.05,0.02,0.05
2014-11-27 16:50:00,2,7132,78,0.04,2,2,0,2,5541,9161,1111,7368,78,78,0,78,0.00,0.05,0.02,0.05
2014-11-27 17:00:00,2,5599,78,0.05,2,2,0,2,4645,6541,637,5718,78,78,0,78,0.05,0.05,0.00,0.05
2014-11-27 17:10:00,2,4803,78,0.05,2,2,0,2,4023,5397,450,4926,78,78,0,78,0.05,0.05,0.00,0.05
2014-11-27 17:20:00,2,4460,78,0.03,2,2,0,2,3862,5400,447,4430,77,78,0,78,0.00,0.05,0.03,0.03
2014-11-27 17:30:00,2,7097,77,0.03,2,2,0,2,3980,10629,2087,7483,77,77,0,77,0.00,0.10,0.03,0.00
2014-11-27 17:40:00,2,11510,78,0.02,2,2,0,2,8649,18126,2745,10538,77,78,0,78,0.00,0.10,0.03,0.00
2014-11-27 17:50:00,2,18534,77,0.00,2,2,0,2,12884,26065,3554,18296,77,77,0,77,0.00,0.00,0.00,0.00
2014-11-27 18:00:00,2,21458,78,0.04,2,2,0,2,14405,29370,3530,21041,78,78,0,78,0.00,0.35,0.11,0.00
2014-11-27 18:10:00,2,24949,74,0.01,2,2,0,2,13784,39129,9184,25053,71,77,3,74,0.00,0.05,0.02,0.00
2014-11-27 18:20:00,2,16736,77,0.01,2,2,0,2,11632,20604,2801,17332,77,77,0,77,0.00,0.05,0.02,0.00
2014-11-27 18:30:00,2,15901,78,0.00,2,2,0,2,12844,24212,3781,13858,77,78,0,78,0.00,0.00,0.00,0.00
2014-11-27 18:40:00,2,12263,78,0.00,2,2,0,2,10828,13643,882,12177,77,78,0,78,0.00,0.00,0.00,0.00
2014-11-27 18:50:00,2,8868,78,0.00,2,2,0,2,7324,11681,1114,8598,77,78,0,78,0.00,0.00,0.00,0.00
2014-11-27 19:00:00,2,7666,77,0.00,1,2,0,2,6750,8726,733,7949,77,78,0,77,0.00,0.00,0.00,0.00
2014-11-27 19:10:00,1,,,,1,1,0,1,,,,,,,,,,,,
2014-11-27 19:20:00,1,,,,1,1,0,1,,,,,,,,,,,,
2014-11-27 19:30:00,1,,,,1,1,0,1,,,,,,,,,,,,
2014-11-27 19:40:00,1,0,,0.00,1,2,0,1,0,0,0,0,,,,,0.00,0.00,0.00,0.00
2014-11-27 19:50:00,1,32015,,0.00,1,2,0,1,19763,50000,11134,29149,,,,,0.00,0.00,0.00,0.00
2014-11-27 20:00:00,2,22683,4,0.00,2,2,0,2,18020,25233,1996,23053,0,10,5,0,0.00,0.00,0.00,0.00
2014-11-27 20:10:00,2,30981,0,0.00,2,2,0,2,23772,41465,4869,30444,0,0,0,0,0.00,0.00,0.00,0.00
2014-11-27 20:20:00,2,30281,0,0.00,2,2,0,2,18657,38902,7015,32392,0,0,0,0,0.00,0.00,0.00,0.00
2014-11-27 20:30:00,2,33233,0,0.00,2,2,0,2,21549,40918,6774,34942,0,0,0,0,0.00,0.00,0.00,0.00
2014-11-27 20:40:00,2,38130,0,0.00,2,2,0,2,29700,44039,4937,39554,0,0,0,0,0.00,0.00,0.00,0.00
2014-11-27 20:50:00,2,25584,0,0.00,2,2,0,2,19956,31296,3903,26017,0,0,0,0,0.00,0.00,0.00,0.00
2014-11-27 21:00:00,2,21802,14,0.00,2,2,0,2,9148,30143,5391,22414,0,71,28,0,0.00,0.00,0.00,0.00
2014-11-27 21:10:00,2,27317,78,0.00,2,2,0,2,20924,34211,4127,27722,78,78,0,78,0.00,0.00,0.00,0.00
2014-11-27 21:20:00,2,21126,78,0.00,2,2,0,2,16205,31805,4766,20066,78,78,0,78,0.00,0.00,0.00,0.00
2014-11-27 21:30:00,2,19320,0,0.00,2,2,0,2,12203,32733,6532,16418,0,0,0,0,0.00,0.00,0.00,0.00
2014-11-27 21:40:00,2,13230,72,0.04,2,2,0,2,10040,16477,2185,13724,71,78,3,71,0.00,0.25,0.08,0.00
2014-11-27 21:50:00,2,14667,76,0.00,2,2,0,2,10925,18000,2472,15618,71,78,3,77,0.00,0.00,0.00,0.00
2014-11-27 22:00:00,2,16276,78,0.00,2,2,0,2,14173,18879,1678,15626,77,78,0,78,0.00,0.00,0.00,0.00
2014-11-27 22:10:00,2,13936,31,0.00,2,2,0,2,12671,15675,1100,13926,0,78,38,0,0.00,0.00,0.00,0.00
2014-11-27 22:20:00,2,16707,0,0.00,2,2,0,2,13525,21476,2208,16150,0,0,0,0,0.00,0.00,0.00,0.00
2014-11-27 22:30:00,2,15736,0,0.00,2,2,0,2,12053,17748,1701,15910,0,0,0,0,0.00,0.00,0.00,0.00
2014-11-27 22:40:00,2,14990,0,0.00,2,2,0,2,13153,20295,2344,13905,0,0,0,0,0.00,0.00,0.00,0.00
2014-11-27 22:50:00,2,15509,0,0.00,2,2,0,2,12996,19295,1597,15316,0,0,0,0,0.00,0.00,0.00,0.00
2014-11-27 23:00:00,2,14736,0,0.00,2,2,0,2,12357,18199,1716,14154,0,0,0,0,0.00,0.00,0.00,0.00
2014-11-27 23:10:00,2,13065,0,0.00,2,2,0,2,9965,15255,1565,13110,0,0,0,0,0.00,0.00,0.00,0.00
2014-11-27 23:20:00,2,15805,0,0.00,2,2,0,2,13263,20489,1967,15318,0,0,0,0,0.00,0.00,0.00,0.00
2014-11-27 23:30:00,2,14265,0,0.00,2,2,0,2,11507,20673,2417,13367,0,0,0,0,0.00,0.00,0.00,0.00
2014-11-27 23:40:00,2,10413,0,0.00,2,2,0,2,8496,12864,1159,10234,0,0,0,0,0.00,0.00,0.00,0.00
2014-11-27 23:50:00,2,11969,76,0.00,2,2,0,2,7287,18849,3500,11002,71,78,3,78,0.00,0.00,0.00,0.00
